Le nostre stazioni meteo in Italia

Pubblicità
Il mio iltempo24.it
Lulea/Kallax, Svezia (2186): Temperatura & dewpoint: 17.08.2017 09:00:00 - 23.08.2017 09:00:00 (CEST)Lulea/Kallax, Svezia (2186): velocità del vento & gusts: 17.08.2017 09:00:00 - 23.08.2017 09:00:00 (CEST)Lulea/Kallax, Svezia (2186): direzione del vento: 17.08.2017 09:00:00 - 23.08.2017 09:00:00 (CEST)Lulea/Kallax, Svezia (2186): reduced air pressure: 17.08.2017 09:00:00 - 23.08.2017 09:00:00 (CEST)Lulea/Kallax, Svezia (2186): visibility: 17.08.2017 09:00:00 - 23.08.2017 09:00:00 (CEST)Lulea/Kallax, Svezia (2186): precipitazioni: 17.08.2017 09:00:00 - 23.08.2017 09:00:00 (CEST)
Data & Tempo tt [°C] td [°C] ff [km/h] ff [kn] fx [km/h] fx [kn] dd ppp [hPa] vv [km] rr [mm]
23.08.2017 09:00:00 9,8 5,2 15 8 29 16 N 1017,3 10 0,0
23.08.2017 08:00:00 8,2 4,6 15 8 25 14 N 1017,8 10 0,0
23.08.2017 07:00:00 6,6 3,9 16 9 29 16 NNO 1018,2 10 0,0
23.08.2017 06:00:00 5,8 3,5 13 7 22 12 NNO 1018,3 10 0,0
23.08.2017 05:00:00 5,8 3,5 11 6 22 12 NNO 1018,3 10 0,0
23.08.2017 04:00:00 6,1 3,8 13 7 22 12 NNO 1018,4 10 0,0
23.08.2017 03:00:00 6,5 3,8 15 8 22 12 NNO 1018,4 10 0,0
23.08.2017 02:00:00 7,5 4,5 11 6 22 12 NNO 1018,6 10 0,0
23.08.2017 01:00:00 8,2 4,8 13 7 22 12 NNO 1018,5 10 0,0
23.08.2017 00:00:00 8,8 5,4 11 6 18 10 N 1018,6 10 0,0
22.08.2017 23:00:00 9,7 5,7 11 6 22 12 NNO 1018,8 10 0,0
22.08.2017 22:00:00 10,2 5,6 9 5 18 10 N 1018,8 10 0,0
22.08.2017 21:00:00 11,6 5,9 8 4 18 10 NNE 1018,7 10 0,0
22.08.2017 20:00:00 12,6 6,0 13 7 25 14 NNE 1018,7 10 0,0
22.08.2017 19:00:00 12,9 5,6 13 7 32 18 NNO 1018,2 10 0,0
22.08.2017 18:00:00 13,5 5,4 16 9 36 19 NNO 1017,9 10 0,0
22.08.2017 17:00:00 14,3 5,1 18 10 36 19 NNO 1017,7 10 0,0
22.08.2017 16:00:00 14,6 5,1 18 10 32 18 N 1018,0 10 0,0
22.08.2017 15:00:00 15,0 4,7 18 10 36 19 N 1017,8 10 0,0
22.08.2017 14:00:00 15,3 6,3 16 9 40 21 N 1017,6 10 0,0
22.08.2017 13:00:00 14,5 6,8 18 10 36 19 N 1017,4 10 0,0
22.08.2017 12:00:00 14,0 8,0 21 11 36 19 N 1017,5 10 0,0
22.08.2017 11:00:00 12,1 7,6 22 12 36 19 N 1017,5 10 0,0
22.08.2017 10:00:00 10,5 7,4 21 11 36 19 NNO 1017,3 10 0,0
22.08.2017 09:00:00 10,4 7,5 22 12 36 19 NNO 1016,9 10 0,0
22.08.2017 08:00:00 10,3 8,1 16 9 32 18 NNO 1016,4 10 0,0
22.08.2017 07:00:00 10,2 8,5 21 11 32 18 NNO 1016,1 10 0,0
22.08.2017 06:00:00 10,2 8,6 18 10 29 16 NNO 1015,7 10 0,0
22.08.2017 05:00:00 10,4 9,2 18 10 32 18 NNO 1015,4 10 0,0
22.08.2017 04:00:00 10,5 9,3 18 10 32 18 NNO 1015,1 10 0,0
22.08.2017 03:00:00 10,7 9,5 18 10 32 18 NNO 1014,7 10 0,0
22.08.2017 02:00:00 11,0 10,1 16 9 29 16 NNO 1014,1 10 0,0
22.08.2017 01:00:00 10,9 10,3 18 10 25 14 NNO 1013,6 6 0,0
22.08.2017 00:00:00 11,1 10,5 15 8 25 14 NNO 1013,5 6 0,4
21.08.2017 23:00:00 11,5 10,9 16 9 32 18 NNO 1013,2 4,6 0,9
21.08.2017 22:00:00 11,9 11,1 13 7 32 18 NNO 1012,9 10 0,0
21.08.2017 21:00:00 12,2 11,3 16 9 25 14 NNO 1012,4 10 0,0
21.08.2017 20:00:00 12,5 11,6 15 8 22 12 NNO 1011,9 10 0,0
21.08.2017 19:00:00 12,9 12,0 13 7 22 12 NNO 1011,3 10 0,0
21.08.2017 18:00:00 13,4 12,6 11 6 22 12 N 1011,0 10 1,0
21.08.2017 17:00:00 13,4 12,8 15 8 22 12 NNO 1010,5 8 18,0
21.08.2017 16:00:00 14,9 12,9 5 3 18 10 SE 1010,1 10 1,0
21.08.2017 15:00:00 17,0 13,1 11 6 14 8 SE 1009,5 10 0,0
21.08.2017 14:00:00 16,7 12,8 4 2 18 10 - 1009,3 10 0,0
21.08.2017 13:00:00 15,2 12,0 8 4 14 8 SSE 1009,2 10 0,0
21.08.2017 12:00:00 14,9 12,4 8 4 14 8 S 1008,9 10 0,0
21.08.2017 11:00:00 14,8 12,5 9 5 14 8 SE 1008,1 10 0,0
21.08.2017 10:00:00 14,5 12,4 0 0 7 4 N 1007,4 10 0,0
21.08.2017 09:00:00 13,6 11,8 5 3 11 6 OSO 1006,9 10 0,0
21.08.2017 08:00:00 13,2 11,8 8 4 14 8 S 1006,3 10 0,0
21.08.2017 07:00:00 12,7 11,3 8 4 22 12 SSO 1005,9 10 0,0
21.08.2017 06:00:00 11,8 11,0 9 5 14 8 S 1005,4 10 0,0
21.08.2017 05:00:00 11,5 10,7 8 4 14 8 SSO 1004,8 10 0,0
21.08.2017 04:00:00 11,8 11,2 9 5 14 8 S 1004,7 10 0,0
21.08.2017 03:00:00 12,1 11,2 8 4 11 6 S 1004,4 10 0,0
21.08.2017 02:00:00 12,1 11,3 5 3 18 10 SSO 1004,0 10 0,0
21.08.2017 01:00:00 12,7 11,4 11 6 18 10 S 1003,5 10 0,0
21.08.2017 00:00:00 12,7 11,3 9 5 18 10 SSO 1003,4 10 0,0
20.08.2017 23:00:00 12,8 11,2 13 7 25 14 SO 1003,2 10 0,0
20.08.2017 22:00:00 12,7 11,3 16 9 29 16 SSO 1002,9 10 0,0
20.08.2017 21:00:00 12,6 11,5 18 10 29 16 S 1002,7 10 0,4
20.08.2017 20:00:00 13,3 11,9 15 8 32 18 SSO 1002,7 10 0,0
20.08.2017 19:00:00 13,6 12,2 18 10 36 19 SSO 1002,5 10 1,0
20.08.2017 18:00:00 13,0 12,1 22 12 36 19 SSO 1002,4 10 2,0
20.08.2017 17:00:00 13,4 11,6 29 16 47 25 S 1001,9 10 0,5
20.08.2017 16:00:00 14,1 11,3 35 19 50 27 S 1001,8 10 0,0
20.08.2017 15:00:00 14,2 11,5 29 16 47 25 S 1001,3 10 0,0
20.08.2017 14:00:00 14,4 11,7 31 17 47 25 S 1001,2 10 0,0
20.08.2017 13:00:00 14,8 11,8 28 15 43 23 S 1000,9 10 0,0
20.08.2017 12:00:00 15,4 11,4 28 15 47 25 S 1000,6 10 0,0
20.08.2017 11:00:00 15,0 12,0 28 15 43 23 S 1000,2 10 0,0
20.08.2017 10:00:00 14,2 11,9 24 13 40 21 S 1000,2 10 0,0
20.08.2017 09:00:00 14,3 11,8 22 12 40 21 S 1000,1 10 0,0
20.08.2017 08:00:00 13,7 11,2 26 14 40 21 SSO 999,8 10 0,0
20.08.2017 07:00:00 13,4 11,3 24 13 40 21 S 999,4 10 0,0
20.08.2017 06:00:00 12,9 11,3 26 14 40 21 S 999,3 10 0,0
20.08.2017 05:00:00 13,5 11,7 22 12 43 23 S 998,8 10 0,0
20.08.2017 04:00:00 13,9 12,1 28 15 50 27 S 998,3 10 0,0
20.08.2017 03:00:00 14,6 13,5 31 17 50 27 S 997,5 10 0,0
20.08.2017 02:00:00 14,8 14,0 24 13 36 19 S 997,3 10 0,0
20.08.2017 01:00:00 15,0 14,4 22 12 40 21 S 997,5 6 0,0
20.08.2017 00:00:00 15,8 15,2 28 15 36 19 SE 997,9 10 0,6
19.08.2017 23:00:00 15,4 14,6 21 11 36 19 ESE 998,8 10 1,0
19.08.2017 22:00:00 15,6 15,0 11 6 25 14 E 1000,0 7 1,0
19.08.2017 21:00:00 15,4 14,6 11 6 18 10 ENE 1001,0 10 0,2
19.08.2017 20:00:00 15,0 14,4 9 5 14 8 ENE 1002,3 10 0,1
19.08.2017 19:00:00 15,0 14,4 8 4 14 8 NE 1003,6 10 1,0
19.08.2017 18:00:00 15,2 14,1 5 3 14 8 ENE 1004,8 10 0,7
19.08.2017 17:00:00 15,2 14,4 5 3 11 6 E 1005,7 10 0,0
19.08.2017 16:00:00 15,4 14,4 8 4 14 8 ESE 1006,3 10 0,0
19.08.2017 15:00:00 15,6 14,3 13 7 18 10 SE 1007,1 10 0,0
19.08.2017 14:00:00 15,8 14,7 15 8 18 10 SE 1007,2 10 0,0
19.08.2017 13:00:00 15,3 14,5 11 6 22 12 SSE 1008,0 10 0,0
19.08.2017 12:00:00 15,4 14,4 16 9 22 12 SSE 1008,1 10 0,0
19.08.2017 11:00:00 15,3 14,7 16 9 22 12 SSE 1008,1 10 0,0
19.08.2017 10:00:00 14,7 14,2 15 8 18 10 SE 1008,1 6 0,2
19.08.2017 09:00:00 14,7 14,1 9 5 14 8 S 1008,4 8 0,0
19.08.2017 08:00:00 14,9 14,3 8 4 11 6 S 1009,0 10 0,0
19.08.2017 07:00:00 13,9 13,4 8 4 14 8 S 1009,0 8 0,1
19.08.2017 06:00:00 13,2 12,7 5 3 11 6 SSE 1009,1 10 0,0
19.08.2017 05:00:00 10,9 10,4 0 0 7 4 N 1008,8 2,2 0,0
19.08.2017 04:00:00 12,6 12,1 5 3 22 12 SSO 1009,0 8 0,0
19.08.2017 03:00:00 12,9 12,4 13 7 22 12 S 1009,3 10 0,0
19.08.2017 02:00:00 13,1 12,5 4 2 11 6 - 1009,3 10 0,0
19.08.2017 01:00:00 13,8 13,2 8 4 11 6 SSE 1009,5 10 0,0
19.08.2017 00:00:00 14,2 13,6 8 4 14 8 S 1009,8 10 0,0
18.08.2017 23:00:00 14,6 13,6 8 4 14 8 S 1010,0 10 0,0
18.08.2017 22:00:00 14,4 13,8 8 4 14 8 SE 1010,5 10 0,0
18.08.2017 21:00:00 14,9 14,3 11 6 14 8 SSE 1010,7 10 0,0
18.08.2017 20:00:00 15,2 14,2 13 7 18 10 SE 1010,8 10 0,0
18.08.2017 19:00:00 15,9 14,3 9 5 14 8 SE 1011,0 10 0,0
18.08.2017 18:00:00 15,9 14,4 11 6 25 14 S 1011,5 10 0,0
18.08.2017 17:00:00 15,8 14,3 21 11 25 14 SSE 1011,8 10 0,0
18.08.2017 16:00:00 15,7 14,2 11 6 25 14 S 1012,1 10 0,0
18.08.2017 15:00:00 16,1 14,3 13 7 22 12 SSE 1012,8 10 0,0
18.08.2017 14:00:00 16,3 14,1 16 9 22 12 SE 1013,1 10 0,0
18.08.2017 13:00:00 17,8 14,3 13 7 18 10 SE 1013,6 10 0,0
18.08.2017 12:00:00 18,3 14,8 9 5 14 8 SE 1014,0 10 0,0
18.08.2017 11:00:00 16,7 14,2 11 6 18 10 SE 1014,4 10 0,1
18.08.2017 10:00:00 15,5 13,2 11 6 14 8 SE 1014,7 10 0,0
18.08.2017 09:00:00 15,5 13,0 9 5 18 10 ESE 1014,9 10 0,0
18.08.2017 08:00:00 14,8 12,7 15 8 22 12 ESE 1014,9 10 0,0
18.08.2017 07:00:00 14,4 12,4 8 4 14 8 E 1015,1 10 0,0
18.08.2017 06:00:00 10,5 9,9 5 3 11 6 ENE 1015,7 10 0,0
18.08.2017 05:00:00 8,6 8,2 4 2 7 4 NNE 1016,2 10 0,0
18.08.2017 04:00:00 9,4 8,9 5 3 11 6 NE 1016,6 10 0,0
18.08.2017 03:00:00 8,4 8,0 4 2 7 4 NO 1016,9 10 0,0
18.08.2017 02:00:00 9,5 9,0 0 0 7 4 N 1017,0 10 0,0
18.08.2017 01:00:00 10,8 10,2 8 4 11 6 S 1017,3 10 0,0
18.08.2017 00:00:00 11,0 10,4 8 4 7 4 SSE 1017,6 10 0,0
17.08.2017 23:00:00 11,7 10,1 9 5 14 8 SSE 1017,4 10 0,0
17.08.2017 22:00:00 11,8 10,4 4 2 11 6 - 1017,7 10 0,0
17.08.2017 21:00:00 13,2 10,7 11 6 18 10 S 1017,9 10 0,0
17.08.2017 20:00:00 14,0 9,4 13 7 14 8 SSE 1017,9 10 0,0
17.08.2017 19:00:00 16,0 9,0 8 4 18 10 SSO 1017,7 10 0,0
17.08.2017 18:00:00 16,6 9,0 13 7 25 14 SSO 1018,1 10 0,0
17.08.2017 17:00:00 16,7 10,1 13 7 29 16 SSO 1018,3 10 0,0
17.08.2017 16:00:00 16,9 9,8 18 10 29 16 S 1018,4 10 0,0
17.08.2017 15:00:00 18,3 10,1 18 10 25 14 S 1018,3 10 0,0
17.08.2017 14:00:00 19,3 8,0 15 8 25 14 OSO 1018,2 10 0,0
17.08.2017 13:00:00 17,6 8,2 11 6 22 12 S 1018,0 10 0,0
17.08.2017 12:00:00 16,3 9,0 15 8 22 12 SO 1018,2 10 0,0
17.08.2017 11:00:00 16,3 8,5 13 7 25 14 OSO 1018,1 10 0,0
17.08.2017 10:00:00 15,7 8,7 16 9 25 14 O 1017,7 10 0,0
17.08.2017 09:00:00 14,3 8,9 15 8 25 14 O 1017,4 10 0,0

tt = Temperatura
td = dewpoint
ff = velocità del vento
fx = gusts
dd = direzione del vento
ppp = reduced air pressure
vv = visibility
rr = precipitazioni

Stazioni seguenti

WeatherPro
AMSI
MeteoEarth